Flag for Germany Weather past 2 weeks in Freising, Bavaria, Germany

Now
66 °F

Clear.


Feels Like: 66 °F
Forecast: 60 / 84 °F
Wind: 1 mph from Northeast

Location: Muenchen Flughafen

Current Time: Jul 2, 2015 at 3:27:56 AM

Latest Report: Jul 1, 2015 at 11:00 PM


Visibility: 25 mi

Pressure: 30.12 "Hg

Humidity: 77%

Dew point: 59 °F

Location of FreisingLocation

Historic Weather in Freising — Graph

°F

Freising temperature yesterday

Maximum temperature yesterday: 83 °F (at 5:00 PM)
Minimum temperature yesterday: 56 °F (at 4:00 AM)
Average temperature yesterday: 71 °F

Past Weeks' High & Low Weather Summary

 TemperatureHumidityPressure
High83 °F (Jul 1, 5:00 PM)100% (Jun 25, 3:00 AM)30.27 "Hg (Jun 25, 3:00 AM)
Low44 °F (Jun 25, 5:00 AM)34% (Jun 30, 6:00 PM)29.74 "Hg (Jun 22, 11:00 PM)
Average61 °F74%30.09 "Hg
* Reported Jun 16 11:00 PM — Jul 1 11:00 PM, Freising, Weather by CustomWeather, © 2015

Note: Actual official high and low records may vary slightly from our data, if they occured in-between our weather recording intervals... More about our weather records

Advertising

Freising weather history for previous 24 hours

 ConditionsComfort  
Time TempWeatherWind HumidityBarometerVisibility
11:00 PM
Wed, Jul 1
66 °FClear.1 mph77%30.12 "Hg25 mi
10:00 PM69 °FClear.1 mph70%30.11 "Hg25 mi
9:00 PM77 °FSunny.1 mph52%30.07 "Hg25 mi
8:00 PM80 °FSunny.2 mph49%30.06 "Hg25 mi
7:00 PM82 °FSunny.3 mph44%30.05 "Hg25 mi
6:00 PM83 °FSunny.5 mph43%30.05 "Hg25 mi
5:00 PM83 °FSunny.5 mph45%30.05 "Hg25 mi
4:00 PM83 °FSunny.5 mph41%30.06 "Hg25 mi
3:00 PM83 °FSunny.5 mph42%30.06 "Hg25 mi
2:00 PM82 °FSunny.5 mph44%30.07 "Hg22 mi
1:00 PM81 °FSunny.5 mph49%30.08 "Hg19 mi
12:00 PM79 °FSunny.5 mph51%30.09 "Hg19 mi
11:00 AM77 °FSunny.3 mph59%30.10 "Hg19 mi
10:00 AM73 °FSunny.3 mph62%30.11 "Hg19 mi
9:00 AM70 °FSunny.2 mph73%30.12 "Hg16 mi
8:00 AM66 °FSunny.1 mph78%30.13 "Hg12 mi
7:00 AM62 °FFog.2 mph89%30.13 "Hg9 mi
6:00 AM56 °FFog.1 mph100%30.14 "Hg9 mi
5:00 AM56 °FFog.1 mph99%30.13 "Hg12 mi
4:00 AM56 °FPassing clouds.1 mph99%30.13 "Hg19 mi
3:00 AM58 °FClear.1 mph98%30.13 "Hg19 mi
Weather by CustomWeather, © 2015

See weather overviewHow to use our weather pages